K4KJQ-13 Weather Reports


time (UTC)temp
C
wind
direction
speed
KPH
gust
KPH
rain 1hr
cm
rain 24hr
cm
rain mn
cm
humidity
%
barometer
mb
20260903042830 27 212 0.0 3.2 0.00 0.00 0.00 100
20260903042329 27 198 0.0 4.8 0.00 0.00 0.00 100
20260903041829 26 274 3.2 4.8 0.00 0.00 0.00 100
20260903041330 26 212 0.0 3.2 0.00 0.00 0.00 100
20260903040830 26 243 1.6 3.2 0.00 0.00 0.00 100
20260903040330 26 177 0.0 0.0 0.00 0.00 0.00 100
20260903035830 26 246 0.0 1.6 0.00 0.00 0.00 100
20260903035330 26 254 0.0 1.6 0.00 0.00 0.00 100
20260903034829 27 220 0.0 1.6 0.00 0.00 0.00 100
20260903034330 27 240 0.0 1.6 0.00 0.00 0.00 100
20260903033830 27 239 1.6 1.6 0.00 0.00 0.00 100
20260903033330 27 229 0.0 1.6 0.00 0.00 0.00 100
20260903032830 27 244 0.0 1.6 0.00 0.00 0.00 100
20260903032330 27 258 0.0 1.6 0.00 0.00 0.00 100
20260903031830 27 248 0.0 1.6 0.00 0.00 0.00 100
20260903031330 27 244 0.0 1.6 0.00 0.00 0.00 100
20260903030830 27 222 0.0 1.6 0.00 0.00 0.00 100
20260903030330 27 223 0.0 0.0 0.00 0.00 0.00 100
20260903025830 27 223 0.0 0.0 0.00 0.00 0.00 100
20260903025330 27 237 0.0 3.2 0.00 0.00 0.00 100
20260903024830 28 233 1.6 3.2 0.00 0.00 0.00 100
20260903024330 28 227 1.6 1.6 0.00 0.00 0.00 100
20260903023830 28 243 1.6 1.6 0.00 0.00 0.00 100
20260903023330 28 258 0.0 3.2 0.00 0.00 0.00 100
20260903022830 27 251 1.6 1.6 0.00 0.00 0.00 100
20260903021829 27 241 1.6 1.6 0.00 0.00 0.00 100
20260903021329 27 251 1.6 1.6 0.00 0.00 0.00 100
20260903020829 27 329 0.0 1.6 0.00 0.00 0.00 100
20260903020329 27 326 0.0 1.6 0.00 0.00 0.00 100
20260903015829 27 326 0.0 0.0 0.00 0.00 0.00 100
20260903015329 27 326 0.0 0.0 0.00 0.00 0.00 100
20260903014829 28 326 0.0 0.0 0.00 0.00 0.00 100
20260903014330 28 326 0.0 0.0 0.00 0.00 0.00 100
20260903013829 28 326 0.0 0.0 0.00 0.00 0.00 100
20260903013330 28 326 0.0 0.0 0.00 0.00 0.00 100
20260903012829 28 326 0.0 0.0 0.00 0.00 0.00 100
20260903012329 28 326 0.0 0.0 0.00 0.00 0.00 100
20260903011829 28 326 0.0 0.0 0.00 0.00 0.00 100
20260903011329 28 326 0.0 0.0 0.00 0.00 0.00 100
20260903010830 28 326 0.0 0.0 0.00 0.00 0.00 100
20260903010330 29 326 0.0 0.0 0.00 0.00 0.00 100
20260903005830 29 326 0.0 0.0 0.00 0.00 0.00 100
20260903005330 30 326 0.0 0.0 0.00 0.00 0.00 100
20260903004829 30 326 0.0 0.0 0.00 0.00 0.00 100
20260903004330 30 326 0.0 0.0 0.00 0.00 0.00 100
20260903003830 30 326 0.0 0.0 0.00 0.00 0.00 100
20260903003330 30 326 0.0 0.0 0.00 0.00 0.00 100
20260903002830 31 326 0.0 0.0 0.00 0.00 0.00 100
20260903002330 31 326 0.0 0.0 0.00 0.00 0.00 100
20260903001830 31 326 0.0 0.0 0.00 0.00 0.00 100
20260903001330 32 326 0.0 0.0 0.00 0.00 0.00 100
20260903000830 32 326 0.0 0.0 0.00 0.00 0.00 100
20260903000330 32 326 0.0 4.8 0.00 0.00 0.00 100
20260902235830 32 292 0.0 3.2 0.00 0.00 0.00 100
20260902235330 33 323 1.6 4.8 0.00 0.00 0.00 100
20260902234830 33 284 0.0 4.8 0.00 0.00 0.00 100
20260902234330 33 326 1.6 4.8 0.00 0.00 0.00 100
20260902233830 34 326 1.6 3.2 0.00 0.00 0.00 100
20260902233330 34 326 1.6 4.8 0.00 0.00 0.00 100
20260902232830 34 345 1.6 4.8 0.00 0.00 0.00 100
20260902232330 35 315 1.6 4.8 0.00 0.00 0.00 100
20260902231830 35 352 3.2 6.4 0.00 0.00 0.00 100
20260902231330 35 322 6.4 8.0 0.00 0.00 0.00 100
20260902230830 36 36 1.6 6.4 0.00 0.00 0.00 100
20260902230330 35 300 4.8 9.7 0.00 0.00 0.00 100
20260902225830 35 316 6.4 9.7 0.00 0.00 0.00 100
20260902225330 35 323 1.6 8.0 0.00 0.00 0.00 100
20260902224830 36 312 4.8 8.0 0.00 0.00 0.00 100
20260902224330 36 324 3.2 11.3 0.00 0.00 0.00 100
20260902223830 36 316 4.8 12.9 0.00 0.00 0.00 100
20260902223330 36 296 9.7 9.7 0.00 0.00 0.00 100
20260902222830 36 306 3.2 11.3 0.00 0.00 0.00 100
20260902222330 36 320 3.2 14.5 0.00 0.00 0.00 100
20260902221830 36 312 12.9 12.9 0.00 0.00 0.00 100
20260902221330 36 288 9.7 14.5 0.00 0.00 0.00 100
20260902220830 36 309 6.4 11.3 0.00 0.00 0.00 100
20260902220330 36 313 0.0 16.1 0.00 0.00 0.00 100
20260902215830 36 316 12.9 16.1 0.00 0.00 0.00 100
20260902215330 37 345 3.2 16.1 0.00 0.00 0.00 100
20260902214830 37 313 4.8 14.5 0.00 0.00 0.00 100
20260902214330 36 15 6.4 9.7 0.00 0.00 0.00 100
20260902213830 36 305 1.6 14.5 0.00 0.00 0.00 100
20260902213330 37 319 11.3 17.7 0.00 0.00 0.00 100
20260902212830 37 291 12.9 12.9 0.00 0.00 0.00 100
20260902212330 37 284 1.6 14.5 0.00 0.00 0.00 100
20260902211830 37 313 12.9 16.1 0.00 0.00 0.00 100
20260902211330 37 4 0.0 11.3 0.00 0.00 0.00 100
20260902210830 37 322 8.0 12.9 0.00 0.00 0.00 100
20260902210330 37 305 9.7 14.5 0.00 0.00 0.00 100
20260902205830 36 317 8.0 14.5 0.00 0.00 0.00 100
20260902205330 36 288 8.0 20.9 0.00 0.00 0.00 100
20260902204830 37 302 9.7 14.5 0.00 0.00 0.00 100
20260902204330 37 298 6.4 14.5 0.00 0.00 0.00 100
20260902203830 37 312 6.4 12.9 0.00 0.00 0.00 100
20260902203330 37 315 4.8 8.0 0.00 0.00 0.00 100
20260902202830 36 320 6.4 12.9 0.00 0.00 0.00 100
20260902202330 36 320 9.7 16.1 0.00 0.00 0.00 100
20260902201830 37 305 6.4 14.5 0.00 0.00 0.00 100
20260902201330 37 284 8.0 11.3 0.00 0.00 0.00 100
20260902200830 37 302 6.4 12.9 0.00 0.00 0.00 100
20260902200330 37 312 9.7 12.9 0.00 0.00 0.00 100
20260902195830 37 286 6.4 20.9 0.00 0.00 0.00 100
20260902195330 37 319 14.5 17.7 0.00 0.00 0.00 100
20260902194830 37 262 4.8 14.5 0.00 0.00 0.00 100
20260902194330 37 312 11.3 11.3 0.00 0.00 0.00 100
20260902193830 37 306 9.7 12.9 0.00 0.00 0.00 100
20260902193330 36 345 4.8 19.3 0.00 0.00 0.00 100
20260902192830 37 247 1.6 16.1 0.00 0.00 0.00 100
20260902192330 36 14 4.8 16.1 0.00 0.00 0.00 100
20260902191830 37 296 3.2 12.9 0.00 0.00 0.00 100
20260902191330 37 330 1.6 16.1 0.00 0.00 0.00 100
20260902190830 37 275 12.9 12.9 0.00 0.00 0.00 100
20260902190330 36 270 11.3 16.1 0.00 0.00 0.00 100
20260902185830 36 330 4.8 11.3 0.00 0.00 0.00 100
20260902185330 36 302 9.7 19.3 0.00 0.00 0.00 100
20260902184830 36 303 3.2 17.7 0.00 0.00 0.00 100
20260902184330 36 295 11.3 17.7 0.00 0.00 0.00 100
20260902183830 36 291 8.0 8.0 0.00 0.00 0.00 100
20260902183330 36 317 3.2 16.1 0.00 0.00 0.00 100
20260902182830 37 286 9.7 19.3 0.00 0.00 0.00 100
20260902182330 36 233 0.0 17.7 0.00 0.00 0.00 100
20260902181830 36 298 6.4 14.5 0.00 0.00 0.00 100
20260902181330 36 277 4.8 12.9 0.00 0.00 0.00 100
20260902180830 36 292 6.4 16.1 0.00 0.00 0.00 100
20260902180330 35 292 12.9 22.5 0.00 0.00 0.00 100
20260902175830 35 312 16.1 19.3 0.00 0.00 0.00 100
20260902175330 35 330 8.0 16.1 0.00 0.00 0.00 100
20260902174830 36 337 0.0 16.1 0.00 0.00 0.00 100
20260902174330 36 313 1.6 16.1 0.00 0.00 0.00 100
20260902173830 35 320 6.4 11.3 0.00 0.00 0.00 100
20260902173330 33 9 0.0 9.7 0.00 0.00 0.00 100
20260902172830 35 330 4.8 12.9 0.00 0.00 0.00 100
20260902172330 35 337 1.6 14.5 0.00 0.00 0.00 100
20260902171830 35 320 12.9 19.3 0.00 0.00 0.00 100
20260902171330 35 316 9.7 9.7 0.00 0.00 0.00 100
20260902170830 35 327 8.0 14.5 0.00 0.00 0.00 100
20260902170330 35 312 4.8 9.7 0.00 0.00 0.00 100
20260902165830 35 210 3.2 12.9 0.00 0.00 0.00 100
20260902165330 36 322 1.6 9.7 0.00 0.00 0.00 100
20260902164830 35 312 3.2 12.9 0.00 0.00 0.00 100
20260902164330 35 338 8.0 12.9 0.00 0.00 0.00 100
20260902163830 34 309 6.4 12.9 0.00 0.00 0.00 100
20260902163330 35 291 3.2 14.5 0.00 0.00 0.00 100
20260902162830 35 295 4.8 11.3 0.00 0.00 0.00 100
20260902162330 34 320 9.7 14.5 0.00 0.00 0.00 100
20260902161830 35 340 8.0 14.5 0.00 0.00 0.00 100
20260902161330 35 320 1.6 8.0 0.00 0.00 0.00 100
20260902160830 35 317 8.0 9.7 0.00 0.00 0.00 100
20260902160330 34 0 6.4 11.3 0.00 0.00 0.00 100
20260902155830 34 305 1.6 8.0 0.00 0.00 0.00 100
20260902155330 35 87 3.2 9.7 0.00 0.00 0.00 100
20260902154830 33 327 8.0 9.7 0.00 0.00 0.00 100
20260902154330 33 12 4.8 9.7 0.00 0.00 0.00 100
20260902153830 33 337 9.7 11.3 0.00 0.00 0.00 100
20260902153330 33 324 3.2 11.3 0.00 0.00 0.00 100
20260902152830 33 333 4.8 9.7 0.00 0.00 0.00 100
20260902152330 33 313 3.2 8.0 0.00 0.00 0.00 100
20260902151830 32 331 4.8 9.7 0.00 0.00 0.00 100
20260902151330 32 322 4.8 9.7 0.00 0.00 0.00 100
20260902150830 32 25 4.8 11.3 0.00 0.00 0.00 100
20260902150330 32 8 8.0 8.0 0.00 0.00 0.00 100
20260902145830 32 59 3.2 9.7 0.00 0.00 0.00 100
20260902145330 32 293 3.2 6.4 0.00 0.00 0.00 100
20260902144830 31 307 3.2 6.4 0.00 0.00 0.00 100
20260902144330 31 323 0.0 4.8 0.00 0.00 0.00 100
20260902143830 31 1 3.2 6.4 0.00 0.00 0.00 100
20260902143330 31 29 1.6 6.4 0.00 0.00 0.00 100
20260902142830 31 316 4.8 8.0 0.00 0.00 0.00 100
20260902142330 31 284 3.2 6.4 0.00 0.00 0.00 100
20260902141830 30 303 0.0 6.4 0.00 0.00 0.00 100
20260902141330 30 358 3.2 8.0 0.00 0.00 0.00 100
20260902140830 30 324 4.8 8.0 0.00 0.00 0.00 100
20260902140330 30 320 1.6 9.7 0.00 0.00 0.00 100
20260902135830 30 319 6.4 11.3 0.00 0.00 0.00 100
20260902135330 30 22 3.2 9.7 0.00 0.00 0.00 100
20260902134830 30 316 3.2 9.7 0.00 0.00 0.00 100
20260902134330 30 319 4.8 11.3 0.00 0.00 0.00 100
20260902133830 30 316 3.2 9.7 0.00 0.00 0.00 100
20260902133330 30 260 3.2 8.0 0.00 0.00 0.00 100
20260902132830 30 322 1.6 9.7 0.00 0.00 0.00 100
20260902132330 30 11 1.6 4.8 0.00 0.00 0.00 100
20260902131830 30 303 3.2 6.4 0.00 0.00 0.00 100
20260902131330 30 268 0.0 8.0 0.00 0.00 0.00 100
20260902130830 30 336 1.6 6.4 0.00 0.00 0.00 100
20260902130330 30 253 3.2 6.4 0.00 0.00 0.00 100
20260902125830 28 316 6.4 6.4 0.00 0.00 0.00 100
20260902125330 28 281 1.6 6.4 0.00 0.00 0.00 100
20260902124830 28 291 4.8 6.4 0.00 0.00 0.00 100
20260902124330 28 296 3.2 8.0 0.00 0.00 0.00 100
20260902123830 28 305 6.4 9.7 0.00 0.00 0.00 100
20260902123330 28 284 6.4 11.3 0.00 0.00 0.00 100
20260902122830 27 278 4.8 9.7 0.00 0.00 0.00 100
20260902122330 27 265 6.4 11.3 0.00 0.00 0.00 100
20260902121830 27 298 0.0 11.3 0.00 0.00 0.00 100
20260902121330 27 286 1.6 9.7 0.00 0.00 0.00 100
20260902120830 26 264 6.4 8.0 0.00 0.00 0.00 100
20260902120330 26 277 6.4 6.4 0.00 0.00 0.00 100
20260902115830 26 281 1.6 4.8 0.00 0.00 0.00 100
20260902115330 26 217 0.0 4.8 0.00 0.00 0.00 100
20260902114830 25 278 1.6 6.4 0.00 0.00 0.00 100
20260902114330 25 271 1.6 6.4 0.00 0.00 0.00 100
20260902113830 25 284 4.8 6.4 0.00 0.00 0.00 100
20260902113330 25 282 1.6 4.8 0.00 0.00 0.00 100
20260902112830 24 230 3.2 8.0 0.00 0.00 0.00 100
20260902112330 25 267 4.8 4.8 0.00 0.00 0.00 100
20260902111830 25 210 3.2 6.4 0.00 0.00 0.00 100
20260902111330 24 236 3.2 6.4 0.00 0.00 0.00 100
20260902110830 24 258 1.6 4.8 0.00 0.00 0.00 100
20260902110330 25 240 3.2 6.4 0.00 0.00 0.00 100
20260902105830 25 156 0.0 6.4 0.00 0.00 0.00 100
20260902105330 25 260 3.2 6.4 0.00 0.00 0.00 100
20260902104830 24 248 3.2 6.4 0.00 0.00 0.00 100
20260902104330 24 261 1.6 6.4 0.00 0.00 0.00 100
20260902103830 24 254 4.8 6.4 0.00 0.00 0.00 100
20260902103330 23 243 3.2 6.4 0.00 0.00 0.00 100
20260902102830 24 239 3.2 6.4 0.00 0.00 0.00 100
20260902102330 23 262 3.2 6.4 0.00 0.00 0.00 100
20260902101830 24 244 3.2 4.8 0.00 0.00 0.00 100
20260902101330 24 233 1.6 4.8 0.00 0.00 0.00 100
20260902100830 24 262 3.2 6.4 0.00 0.00 0.00 100
20260902100330 24 248 1.6 6.4 0.00 0.00 0.00 100
20260902095830 24 247 3.2 4.8 0.00 0.00 0.00 100
20260902095330 24 274 1.6 4.8 0.00 0.00 0.00 100
20260902094830 24 247 3.2 4.8 0.00 0.00 0.00 100
20260902094330 23 213 3.2 3.2 0.00 0.00 0.00 100
20260902093830 24 199 1.6 3.2 0.00 0.00 0.00 100
20260902093330 23 215 1.6 3.2 0.00 0.00 0.00 100
20260902092830 24 239 0.0 1.6 0.00 0.00 0.00 100
20260902092330 25 153 0.0 3.2 0.00 0.00 0.00 100
20260902091830 25 233 0.0 1.6 0.00 0.00 0.00 100
20260902091330 25 220 0.0 3.2 0.00 0.00 0.00 100
20260902090830 25 275 3.2 4.8 0.00 0.00 0.00 100
20260902090330 25 264 3.2 4.8 0.00 0.00 0.00 100
20260902085830 25 239 3.2 4.8 0.00 0.00 0.00 100
20260902085330 25 233 0.0 4.8 0.00 0.00 0.00 100
20260902084830 25 255 1.6 4.8 0.00 0.00 0.00 100
20260902084330 25 253 0.0 4.8 0.00 0.00 0.00 100
20260902083830 25 279 3.2 4.8 0.00 0.00 0.00 100
20260902083330 25 230 1.6 4.8 0.00 0.00 0.00 100
20260902082830 25 267 1.6 4.8 0.00 0.00 0.00 100
20260902082330 25 272 3.2 4.8 0.00 0.00 0.00 100
20260902081830 25 255 1.6 6.4 0.00 0.00 0.00 100
20260902081331 25 282 3.2 6.4 0.00 0.00 0.00 100
20260902080830 25 264 4.8 6.4 0.00 0.00 0.00 100
20260902080330 25 239 3.2 4.8 0.00 0.00 0.00 100
20260902075830 25 274 1.6 4.8 0.00 0.00 0.00 100
20260902075331 25 253 1.6 3.2 0.00 0.00 0.00 100
20260902074830 25 248 1.6 3.2 0.00 0.00 0.00 100
20260902074330 25 237 1.6 4.8 0.00 0.00 0.00 100
20260902073830 25 227 1.6 3.2 0.00 0.00 0.00 100
20260902073330 25 226 1.6 1.6 0.00 0.00 0.00 100
20260902072831 25 223 1.6 3.2 0.00 0.00 0.00 100
20260902072331 25 253 1.6 3.2 0.00 0.00 0.00 100
20260902071831 25 284 1.6 1.6 0.00 0.00 0.00 100
20260902071331 25 250 1.6 3.2 0.00 0.00 0.00 100
20260902070831 25 265 3.2 4.8 0.00 0.00 0.00 100
20260902070331 25 192 0.0 4.8 0.00 0.00 0.00 100
20260902065831 26 257 1.6 4.8 0.00 0.00 0.00 100
20260902065331 26 258 3.2 6.4 0.00 0.00 0.00 100
20260902064831 26 253 3.2 9.7 0.00 0.00 0.00 100
20260902064331 26 225 3.2 11.3 0.00 0.00 0.00 100
20260902063831 26 282 8.0 8.0 0.00 0.00 0.00 100
20260902063331 26 251 4.8 6.4 0.00 0.00 0.00 100
20260902062831 26 264 3.2 8.0 0.00 0.00 0.00 100
20260902051831 25 262 0.0 3.2 0.00 0.00 0.00 100
20260902051331 25 216 1.6 1.6 0.00 0.00 0.00 100
20260902050831 25 203 0.0 1.6 0.00 0.00 0.00 100
20260902050331 25 222 0.0 1.6 0.00 0.00 0.00 100
20260902045831 26 223 1.6 1.6 0.00 0.00 0.00 100
20260902045331 25 240 1.6 3.2 0.00 0.00 0.00 100
20260902044831 25 239 0.0 1.6 0.00 0.00 0.00 100
20260902044331 25 239 0.0 1.6 0.00 0.00 0.00 100
20260902043831 25 213 0.0 1.6 0.00 0.00 0.00 100
20260902043331 25 255 0.0 1.6 0.00 0.00 0.00 100